COSMOS 252 DEB, 3554

Orbit data source: Space-Track

COSMOS 252 DEB, 3554 is space debris in LEO originally from a launch on Fri, 01 Nov 1968 UTC launched from the Tyuratam Missile And Space Complex (TTMTR). Debris objects in space refer to the collection of defunct objects orbiting the Earth. Examples of debris include non-operational satellites, rocket bodies, and fragments generated from explosions, collisions, or faulty payload assembly.

Loading next visibility...
Identifier
3554, 1968-097G
Orbit
LEO
Country
Flag of CISCIS
Related business
Manufacturer
Unknown
Mission
Spacecraft
Bus & Motor
Unknown
Mass
Unknown
Launch date (UTC)
1968-11-01 (58 years ago)
Launch vehicle
Unknown
Launch site
Tyuratam Missile And Space Complex (TTMTR)
Object type
Payload
Rocket body
Debris
Shape & HBR
Unknown shape, 0.1 m
Radar Cross Section
Medium (>0.1 m² and <1 m²)

Expand to show TLE details & history
Last TLE update: 8 hours ago

TLE from 8 hours ago
0 COSMOS 252 DEB
1 03554U 68097G   26174.93899787  .00000604  00000-0  18529-3 0  9995
2 03554  62.2708  41.9744 0535661 305.3426  49.8647 13.90456803826454
Epoch: 2026-06-23T22:32Z
TLE epoch observation values (Epoch: 2026-06-23T22:32:09.415Z)
Latitude
-0.00007°
Longitude
151.83176°
Altitude
689.401 km
Speed
7.634 km/s
True Right ascension
02h 47m 53s
True Declination
0° 00' 00"
Sunlit
Object was in daylight at epoch
Visualization orbit readout
Latitude
Unknown
Longitude
Unknown
Altitude
Unknown
Speed
Unknown
Apparent Right ascension
Unknown
Apparent Declination
Unknown
Sunlit
N/A
Visualization observer readout
Local Sidereal Time
17:50:15
Azimuth
Unknown
Elevation
Unknown
Doppler factor
Unknown
Orbital elements
Apogee altitude
1,317.227 km
Perigee altitude
534.721 km
Semi-major axis
7,304.111 km
Eccentricity
0.05357
Inclination
62.2708°
RAAN
41.9744°
Arg. of periapsis
305.3426°
True anomaly
54.76279°
Mean anomaly
49.8647°
Eccentric anomaly
52.29282°
Mean motion
3.4769 °/min
Orbital period
103.54 mins
BSTAR
0.00018529
Loading maneuver chart data...
Computing Atmospheric mass density...

Documentation

Showing up to 5 results
|